Regional Weather Roundup
Issued by NWS

Home | Current Version | Previous Version | Text Only | Print | Product List | Glossary Off
Versions: 1 2 3 4 5 6 7 8 9 10 11 12 13 14 15 16 17 18 19 20 21 22 23 24 25 26 27 28 29 30 31 32 33 34 35 36 37 38 39 40 41 42 43 44 45 46 47 48 49 50

000
ASUS43 KMKX 091321
RWRWI

WISCONSIN REGIONAL WEATHER ROUNDUP
NATIONAL WEATHER SERVICE MILWAUKEE/SULLIVAN WI
700 AM CST FRI DEC 09 2016

NOTE: "FAIR" INDICATES FEW OR NO CLOUDS BELOW 12,000 FEET WITH NO
SIGNIFICANT WEATHER AND/OR OBSTRUCTIONS TO VISIBILITY.

WIZ001-002-006>008-014>016-023>028-091400-
NORTHWEST WISCONSIN

CITY           SKY/WX    TMP DP  RH WIND       PRES   REMARKS
SUPERIOR ARPT  CLOUDY    15   8  72 NW6       30.51S WCI   7
ASHLAND        CLOUDY    16   9  74 W6        30.47S WCI   7
HAYWARD        CLOUDY    13   6  74 VRB3      30.45F
SIREN          LGT SNOW  14  11  89 W5        30.50S WCI   6
CUMBERLAND     CLOUDY    12   9  85 W3        30.47S
RICE LAKE      FLURRIES  12   9  87 CALM      30.50S
CHETEK         FLURRIES  12   9  87 CALM      30.49S
LADYSMITH      CLOUDY    12   8  82 NW6       30.47S WCI   3
EAU CLAIRE     CLOUDY    11   9  92 SW5       30.50S WCI   3
MENOMONIE      CLOUDY    14  11  88 W6        30.52S WCI   5
NEW RICHMOND   FLURRIES  14  10  86 W5        30.51S WCI   6
OSCEOLA        FLURRIES  15  11  85 W6        30.55R WCI   6
$$

WIZ003>005-009-010-017-018-091400-
NORTH CENTRAL WISCONSIN

CITY           SKY/WX    TMP DP  RH WIND       PRES   REMARKS
MANITOWISH WTR CLOUDY    10   8  90 W7        30.36S WCI   0
ARBOR VITAE    PTCLDY    14  10  85 NW7       30.36S WCI   3
WOODRUFF       PTCLDY    14  10  85 NW7       30.36S WCI   3
RHINELANDER    CLOUDY    12   8  84 NW3       30.36F
EAGLE RIVER    FLURRIES  14   8  77 NW7       30.34S WCI   4
LAND O LAKES   LGT SNOW  15  12  86 W5        30.35F WCI   8
PHILLIPS       CLEAR      7   6  92 CALM      30.40S
TOMAHAWK       CLEAR      7   4  89 W3        30.40S
MEDFORD        CLEAR      8   5  88 W6        30.41S WCI  -2
MERRILL        CLEAR     11   7  83 CALM      30.41F
$$

WIZ029-030-035-036-043>047-091400-
CENTRAL WISCONSIN

CITY           SKY/WX    TMP DP  RH WIND       PRES   REMARKS
WAUSAU         CLEAR     15   7  70 NW6       30.41S WCI   6
MOSINEE        PTCLDY    14   9  79 NW6       30.43R WCI   5
MARSHFIELD     PTCLDY    10   6  84 NW8       30.43R WCI  -2
STEVENS POINT  FLURRIES  13   9  84 W3        30.44R
WAUPACA        CLEAR     21   9  60 W9        30.45R WCI  11
WAUTOMA        CLOUDY    17  12  80 W9        30.47R WCI   6
WISC RAPIDS    CLEAR     12   9  87 NW7       30.47R WCI   1
CAMP DOUGLAS   CLEAR     12   9  85 W9        30.49R WCI   0
$$

WIZ011>013-019>022-031-037>040-048>050-091400-
NORTHEAST WISCONSIN

CITY           SKY/WX    TMP DP  RH WIND       PRES   REMARKS
ANTIGO         PTCLDY    13   6  76 NW9       30.37S WCI   0
SHAWANO        PTCLDY    21  13  70 W5        30.42S WCI  15
OCONTO         PTCLDY    15   8  72 W6        30.40S WCI   6
STURGEON BAY   CLEAR     21  11  65 NW16G24   30.38S WCI   7
GREEN BAY      CLOUDY    23  15  71 NW9       30.42R WCI  13
MANITOWOC      MOCLDY    20  15  81 W12       30.42R WCI   8
APPLETON       MOCLDY    19  10  68 W7        30.40R WCI  10
CLINTONVILLE   CLOUDY    21  10  63 NW9       30.42S WCI  11
OSHKOSH        CLOUDY    19  13  77 W7        30.43R WCI  10
$$

WIZ032>034-041-042-053>061-091400-
SOUTHWEST WISCONSIN

CITY           SKY/WX    TMP DP  RH WIND       PRES   REMARKS
LA CROSSE      CLOUDY    21  11  65 N10       30.52S WCI  10
SPARTA         CLOUDY    18  13  78 N3        30.51S
VIROQUA        CLOUDY    17  15  90 W6        30.47S WCI   9
BOSCOBEL       CLOUDY    19  13  77 W6        30.53F WCI  11
PRAIRIE DU CHI CLEAR     15  10  80 W7        30.55S WCI   5
PLATTEVILLE    CLEAR     14  13  93 W8        30.51S WCI   3
$$

WIZ056-057-062-063-064-067-068-091400-
SOUTH CENTRAL WISCONSIN

CITY           SKY/WX    TMP DP  RH WIND       PRES   REMARKS
REEDSBURG      CLEAR     17  11  76 NW8       30.49R WCI   7
BARABOO/DELLS  CLOUDY    19  11  73 W10       30.47S WCI   7
LONE ROCK      CLOUDY    21  14  74 W7        30.51R WCI  12
MINERAL POINT  FLURRIES  19  18  93 W9        30.47S WCI   9
MADISON        MOCLDY    20  10  65 NW9       30.48R WCI   9
MIDDLETON      CLOUDY    22  14  71 NW12      30.48R WCI  10
WATERTOWN      CLEAR     18  13  82 W5        30.46S WCI  11
MONROE         FLURRIES  21  18  86 W10       30.47S WCI  10
JANESVILLE     CLOUDY    23  18  80 W12       30.48R WCI  12
$$

WIZ051-052-058>065-066-070>072-091400-
SOUTHEAST WISCONSIN

CITY           SKY/WX    TMP DP  RH WIND       PRES   REMARKS
MILWAUKEE      CLEAR     22  14  71 NW12      30.46R WCI  10
WAUKESHA       CLEAR     18  14  86 W14       30.45S WCI   4
MILWAUKEE/TIMM NOT AVBL
RACINE         CLEAR     20  14  77 W7        30.47R WCI  11
BURLINGTON     CLEAR     25  21  83 CALM      30.47R
KENOSHA        CLEAR     19  14  81 W7        30.47R WCI  10
FOND DU LAC    CLOUDY    19  11  70 W15       30.44R WCI   5
SHEBOYGAN      CLEAR     18  13  80 W7        30.42R WCI   9
WEST BEND      CLEAR     19  16  86 NW9       30.43R WCI   9
JUNEAU         CLEAR     17  12  82 W6        30.46R WCI   8
$$

LSZ147-162-091400-
LAKE SUPERIOR

STATION/POSITION TIME  TEMP    WIND        PRES    WAVE
                       AIR SEA DIR/SP/G            HT/PER
                 (UTC) (F)     (DEG/KT/KT) (MB)    (FT/S)
DEVILS ISLAND    1300   18     330/ 13/ 17 1032.6F
PORT WING        1240   18     280/ 15/ 21 1032.2S
SAXON HARBOR     1240   20     260/  8/ 19 1030.8F
$$

LMZ867-665-643>646-091400-
LAKE MICHIGAN

STATION/POSITION TIME  TEMP    WIND        PRES    WAVE
                       AIR SEA DIR/SP/G            HT/PER
                 (UTC) (F)     (DEG/KT/KT) (MB)    (FT/S)
CHAMBERS ISLAND  1240   22     300/ 12/ 20 1027.8S
NORTHPORT PIER   1245   25     310/ 20     1027.8R
SISTER BAY       1250   24     330/ 21/ 27   N/A
ALGOMA LAKESHORE 1236          330/ 12/ 15   N/A
KEWAUNEE LAKESHO 1254   20     310/  5/  9 1028.8R
SHEBOYGAN LAKESH 1300   21     290/  9/ 11 1031.3R
PORT WASHINGTON  1240   20     280/  4/  8 1031.8R
MILWAUKEE LAKESH 1300   22     290/  9/ 11   N/A
KENOSHA   LAKESH 1300   22     290/  9/ 12 1031.5
$$

TC  - TEMPERATURE IN CELSIUS
VSB - VISIBILITY IN STATUTE MILES
WCI - WIND CHILL INDEX
HX  - HEAT INDEX




USA.gov is the U.S. government's official web portal to all federal, state and local government web resources and services.